SA3PJN-WX Weather Reports


time (UTC)temp
F
wind
direction
speed
knots
gust
knots
rain 1hr
in
rain 24hr
in
rain mn
in
humidity
%
barometer
mb
20260509012850 45 54 4.3 10.4 0.00 0.00 0.00 62 976.2
20260509012350 45 75 4.3 9.6 0.00 0.00 0.00 61 976.2
20260509011820 45 73 5.2 11.3 0.00 0.00 0.00 60 976.2
20260509011320 45 54 5.2 11.3 0.00 0.00 0.00 60 976.2
20260509010820 46 44 7.0 12.2 0.00 0.00 0.00 59 976.3
20260509010320 46 77 7.0 13.9 0.00 0.00 0.00 59 976.2
20260509005820 46 47 6.1 13.9 0.00 0.00 0.00 59 976.2
20260509005320 46 68 5.2 12.2 0.00 0.00 0.00 60 976.3
20260509004820 45 76 5.2 12.2 0.00 0.00 0.00 61 976.1
20260509004250 45 117 5.2 11.3 0.00 0.00 0.00 62 976.3
20260509003750 45 73 4.3 11.3 0.00 0.00 0.00 62 976.2
20260509003250 45 105 4.3 10.4 0.00 0.00 0.00 62 976.3
20260509002720 46 63 5.2 11.3 0.00 0.00 0.00 61 976.3
20260509002220 46 62 4.3 11.3 0.00 0.00 0.00 60 976.4
20260509001720 46 57 3.5 11.3 0.00 0.00 0.00 59 976.3
20260509001220 46 8 3.5 11.3 0.00 0.00 0.00 59 976.3
20260509000720 46 209 3.5 9.6 0.00 0.00 0.00 60 976.4
20260509000220 46 50 4.3 9.6 0.00 0.00 0.00 61 976.3
20260508235650 45 217 5.2 11.3 0.00 0.00 0.00 63 976.5
20260508235150 45 64 5.2 11.3 0.00 0.00 0.00 63 976.5
20260508234650 45 95 5.2 9.6 0.00 0.00 0.00 62 976.6
20260508234149 45 51 5.2 9.6 0.00 0.00 0.00 62 976.5
20260508233620 45 75 5.2 9.6 0.00 0.00 0.00 62 976.6
20260508233119 46 42 4.3 9.6 0.00 0.00 0.00 60 976.5
20260508232550 46 66 4.3 9.6 0.00 0.00 0.00 59 976.5
20260508232049 46 51 4.3 8.7 0.00 0.00 0.00 58 976.5
20260508231550 46 60 4.3 7.8 0.00 0.00 0.00 57 976.3
20260508231049 46 49 3.5 7.0 0.00 0.00 0.00 57 976.2
20260508230520 46 50 3.5 7.0 0.00 0.00 0.00 57 976.2
20260508225949 46 49 3.5 7.0 0.00 0.00 0.00 57 976.3
20260508225449 46 62 3.5 7.0 0.00 0.00 0.00 56 976.3
20260508224949 46 30 3.5 7.0 0.00 0.00 0.00 56 976.3
20260508224419 46 39 2.6 6.1 0.00 0.00 0.00 54 976.4
20260508223919 47 35 2.6 6.1 0.00 0.00 0.00 53 976.4
20260508223349 47 61 0.9 3.5 0.00 0.00 0.00 52 976.4
20260508222849 47 158 1.7 3.5 0.00 0.00 0.00 52 976.4
20260508222319 47 154 1.7 5.2 0.00 0.00 0.00 52 976.3
20260508221819 47 199 2.6 8.7 0.00 0.00 0.00 51 976.3
20260508221249 47 207 2.6 8.7 0.00 0.00 0.00 50 976.4
20260508220750 47 209 2.6 8.7 0.00 0.00 0.00 50 976.3
20260508220249 47 257 2.6 7.0 0.00 0.00 0.00 51 976.3
20260508215749 47 225 2.6 6.1 0.00 0.00 0.00 51 976.4
20260508215249 47 231 2.6 7.0 0.00 0.00 0.00 50 976.4
20260508214749 47 193 2.6 7.0 0.00 0.00 0.00 50 976.4
20260508214249 47 226 2.6 7.0 0.00 0.00 0.00 50 976.3
20260508213749 47 216 2.6 6.1 0.00 0.00 0.00 50 976.4
20260508213249 47 61 2.6 7.8 0.00 0.00 0.00 49 976.5
20260508212749 47 68 3.5 8.7 0.00 0.00 0.00 48 976.3
20260508212249 48 64 4.3 8.7 0.00 0.00 0.00 47 976.4
20260508211749 48 68 3.5 8.7 0.00 0.00 0.00 47 976.4
20260508211249 48 60 3.5 7.8 0.00 0.00 0.00 46 976.4
20260508210749 48 92 2.6 7.8 0.00 0.00 0.00 45 976.4
20260508210219 48 199 2.6 6.1 0.00 0.00 0.00 45 976.3
20260508205719 48 59 2.6 6.1 0.00 0.00 0.00 44 976.3
20260508205219 49 195 2.6 7.8 0.00 0.00 0.00 45 976.4
20260508204719 49 229 2.6 7.8 0.00 0.00 0.00 45 976.3
20260508204219 48 200 2.6 6.1 0.00 0.00 0.00 45 976.3
20260508203719 48 231 1.7 6.1 0.00 0.00 0.00 44 976.2
20260508203219 49 246 1.7 5.2 0.00 0.00 0.00 43 976.2
20260508202719 49 335 1.7 5.2 0.00 0.00 0.00 43 976.1
20260508202219 49 237 1.7 5.2 0.00 0.00 0.00 42 976.1
20260508201719 49 293 1.7 5.2 0.00 0.00 0.00 41 976.1
20260508201219 49 257 1.7 5.2 0.00 0.00 0.00 41 976.2
20260508200718 49 253 1.7 4.3 0.00 0.00 0.00 40 976.1
20260508200148 49 244 1.7 4.3 0.00 0.00 0.00 40 976.2
20260508195618 49 226 1.7 4.3 0.00 0.00 0.00 40 976.0
20260508195118 50 232 1.7 4.3 0.00 0.00 0.00 40 976.0
20260508194618 50 239 2.6 6.1 0.00 0.00 0.00 39 976.0
20260508194118 50 155 2.6 6.1 0.00 0.00 0.00 39 976.0
20260508193618 50 153 2.6 5.2 0.00 0.00 0.00 39 976.0
20260508193118 50 172 2.6 5.2 0.00 0.00 0.00 39 976.0
20260508192618 50 234 1.7 4.3 0.00 0.00 0.00 40 976.0
20260508192048 51 170 1.7 3.5 0.00 0.00 0.00 41 976.0
20260508191548 51 272 1.7 3.5 0.00 0.00 0.00 40 976.0
20260508191048 51 210 1.7 4.3 0.00 0.00 0.00 40 976.0
20260508190548 52 236 1.7 5.2 0.00 0.00 0.00 40 975.6
20260508190048 52 131 2.6 6.1 0.00 0.00 0.00 39 976.0
20260508185518 53 136 3.5 8.7 0.00 0.00 0.00 39 976.0
20260508185018 53 174 2.6 8.7 0.00 0.00 0.00 37 976.0
20260508184518 53 153 1.7 4.3 0.00 0.00 0.00 38 976.0
20260508184018 53 241 1.7 4.3 0.00 0.00 0.00 37 975.6
20260508183518 53 268 1.7 3.5 0.00 0.00 0.00 37 976.0
20260508183018 54 241 1.7 4.3 0.00 0.00 0.00 37 975.5
20260508182518 54 227 1.7 4.3 0.00 0.00 0.00 36 975.5
20260508182018 54 245 1.7 4.3 0.00 0.00 0.00 36 975.6
20260508181518 54 251 1.7 4.3 0.00 0.00 0.00 36 975.6
20260508181018 55 220 1.7 5.2 0.00 0.00 0.00 35 975.6
20260508180518 56 232 1.7 5.2 0.00 0.00 0.00 35 975.6
20260508180018 56 43 1.7 5.2 0.00 0.00 0.00 32 975.6
20260508175518 56 166 0.9 2.6 0.00 0.00 0.00 32 975.5
20260508174948 57 246 0.9 2.6 0.00 0.00 0.00 33 975.5
20260508174448 57 226 0.9 3.5 0.00 0.00 0.00 32 975.3
20260508173948 57 114 0.9 3.5 0.00 0.00 0.00 32 975.5
20260508173448 57 84 0.9 4.3 0.00 0.00 0.00 32 975.5
20260508172948 58 164 1.7 4.3 0.00 0.00 0.00 31 975.4
20260508172448 58 72 0.9 3.5 0.00 0.00 0.00 30 975.4
20260508171948 58 206 0.9 5.2 0.00 0.00 0.00 30 975.3
20260508171448 58 27 1.7 5.2 0.00 0.00 0.00 29 975.3
20260508170948 58 188 1.7 5.2 0.00 0.00 0.00 30 975.4
20260508170448 58 72 1.7 5.2 0.00 0.00 0.00 28 975.4
20260508165918 59 103 0.9 3.5 0.00 0.00 0.00 30 975.4
20260508165418 59 192 1.7 6.1 0.00 0.00 0.00 30 975.4
20260508164918 59 259 1.7 6.1 0.00 0.00 0.00 29 975.4
20260508164417 59 200 1.7 3.5 0.00 0.00 0.00 28 975.6
20260508163847 60 244 1.7 3.5 0.00 0.00 0.00 30 975.6
20260508163317 59 160 1.7 3.5 0.00 0.00 0.00 29 975.6
20260508162817 59 173 1.7 7.0 0.00 0.00 0.00 28 975.6
20260508162317 59 289 1.7 7.0 0.00 0.00 0.00 29 975.6
20260508161817 59 117 1.7 5.2 0.00 0.00 0.00 29 975.5
20260508161317 60 157 1.7 5.2 0.00 0.00 0.00 28 975.5
20260508160747 60 139 1.7 5.2 0.00 0.00 0.00 29 975.6
20260508160247 60 97 2.6 6.1 0.00 0.00 0.00 29 975.6
20260508155717 60 219 2.6 8.7 0.00 0.00 0.00 28 975.6
20260508155217 60 330 2.6 11.3 0.00 0.00 0.00 28 975.6
20260508154717 60 218 3.5 14.8 0.00 0.00 0.00 29 975.5
20260508154217 60 156 3.5 14.8 0.00 0.00 0.00 28 975.5
20260508153717 59 71 3.5 14.8 0.00 0.00 0.00 26 975.5
20260508153217 60 232 3.5 13.9 0.00 0.00 0.00 28 975.6
20260508152717 60 221 2.6 13.9 0.00 0.00 0.00 28 975.6
20260508152217 60 192 2.6 7.8 0.00 0.00 0.00 29 976.0
20260508151717 60 202 2.6 7.0 0.00 0.00 0.00 28 976.0
20260508151217 60 214 2.6 7.0 0.00 0.00 0.00 29 975.6
20260508150647 60 205 1.7 6.1 0.00 0.00 0.00 30 976.0
20260508150117 59 134 2.6 11.3 0.00 0.00 0.00 28 976.0
20260508145617 58 237 3.5 11.3 0.00 0.00 0.00 30 976.0
20260508145117 59 337 3.5 11.3 0.00 0.00 0.00 31 976.0
20260508144617 58 207 5.2 14.8 0.00 0.00 0.00 31 976.0
20260508144047 58 50 6.1 14.8 0.00 0.00 0.00 30 976.0
20260508143547 58 86 4.3 13.9 0.00 0.00 0.00 30 976.0
20260508143047 58 231 3.5 13.9 0.00 0.00 0.00 30 976.0
20260508142517 58 178 5.2 13.9 0.00 0.00 0.00 31 976.0
20260508142017 57 66 5.2 13.9 0.00 0.00 0.00 30 976.0
20260508141517 58 45 3.5 10.4 0.00 0.00 0.00 30 976.0
20260508141017 59 261 2.6 7.8 0.00 0.00 0.00 31 976.1
20260508140517 59 142 3.5 8.7 0.00 0.00 0.00 32 976.1
20260508140016 58 128 4.3 10.4 0.00 0.00 0.00 30 976.3
20260508135516 58 50 4.3 11.3 0.00 0.00 0.00 30 976.3
20260508134946 58 18 7.0 14.8 0.00 0.00 0.00 30 976.2
20260508134446 57 51 7.0 14.8 0.00 0.00 0.00 31 976.2
20260508133946 57 62 7.0 14.8 0.00 0.00 0.00 29 976.4
20260508133446 56 17 6.1 14.8 0.00 0.00 0.00 29 976.5
20260508132916 57 62 6.1 14.8 0.00 0.00 0.00 30 976.6
20260508132416 58 129 6.1 14.8 0.00 0.00 0.00 30 977.0
20260508131846 57 54 5.2 13.0 0.00 0.00 0.00 31 977.0
20260508131346 57 65 4.3 13.0 0.00 0.00 0.00 28 977.0
20260508130846 58 120 2.6 7.8 0.00 0.00 0.00 28 977.0
20260508130346 58 229 2.6 11.3 0.00 0.00 0.00 30 977.0
20260508125846 58 131 3.5 11.3 0.00 0.00 0.00 30 977.0
20260508125316 57 275 4.3 11.3 0.00 0.00 0.00 29 977.0
20260508124816 58 143 4.3 9.6 0.00 0.00 0.00 30 977.0
20260508124316 58 154 5.2 16.5 0.00 0.00 0.00 30 977.0
20260508123816 57 206 6.1 16.5 0.00 0.00 0.00 27 977.0
20260508123316 58 66 4.3 17.4 0.00 0.00 0.00 26 977.0
20260508122816 58 281 4.3 17.4 0.00 0.00 0.00 26 977.0
20260508122316 59 237 3.5 10.4 0.00 0.00 0.00 28 977.0
20260508121816 58 96 4.3 13.0 0.00 0.00 0.00 29 977.0
20260508121316 58 183 5.2 14.8 0.00 0.00 0.00 29 977.0
20260508120816 57 246 7.0 18.2 0.00 0.00 0.00 29 977.0
20260508120246 56 117 7.8 18.2 0.00 0.00 0.00 33 977.0
20260508115746 57 62 7.0 17.4 0.00 0.00 0.00 32 977.0
20260508115246 56 29 7.0 16.5 0.00 0.00 0.00 32 977.0
20260508114746 55 42 7.0 16.5 0.00 0.00 0.00 32 977.0
20260508114216 56 57 4.3 15.6 0.00 0.00 0.00 31 977.0
20260508113716 58 72 5.2 14.8 0.00 0.00 0.00 32 977.0
20260508113216 57 185 5.2 14.8 0.00 0.00 0.00 33 977.0
20260508112716 57 25 5.2 14.8 0.00 0.00 0.00 30 977.0
20260508112216 58 56 5.2 15.6 0.00 0.00 0.00 30 977.0
20260508111716 58 9 5.2 15.6 0.00 0.00 0.00 30 977.0
20260508111146 57 60 5.2 15.6 0.00 0.00 0.00 30 977.0
20260508110646 58 122 4.3 12.2 0.00 0.00 0.00 30 977.0
20260508110146 57 35 5.2 15.6 0.00 0.00 0.00 28 977.1
20260508105646 57 215 6.1 15.6 0.00 0.00 0.00 33 977.0
20260508105146 57 61 6.1 18.2 0.00 0.00 0.00 29 977.0
20260508104646 58 86 7.0 18.2 0.00 0.00 0.00 31 977.0
20260508104146 56 108 7.8 18.2 0.00 0.00 0.00 31 977.1
20260508103646 56 74 7.0 15.6 0.00 0.00 0.00 31 977.0
20260508103116 56 49 5.2 15.6 0.00 0.00 0.00 33 977.1
20260508102616 57 66 4.3 14.8 0.00 0.00 0.00 27 977.0
20260508102116 58 275 4.3 13.0 0.00 0.00 0.00 29 977.0
20260508101546 57 73 3.5 13.0 0.00 0.00 0.00 28 977.1
20260508101016 58 194 3.5 10.4 0.00 0.00 0.00 31 977.0
20260508100516 56 48 5.2 13.0 0.00 0.00 0.00 32 977.1
20260508100016 56 216 7.0 13.9 0.00 0.00 0.00 33 977.1
20260508095446 55 59 7.8 14.8 0.00 0.00 0.00 31 977.1
20260508094946 55 60 7.8 14.8 0.00 0.00 0.00 32 977.2
20260508094416 55 65 6.1 13.9 0.00 0.00 0.00 31 977.3
20260508093916 56 92 4.3 12.2 0.00 0.00 0.00 33 977.4
20260508093346 58 163 4.3 14.8 0.00 0.00 0.00 33 977.4
20260508092846 56 56 4.3 14.8 0.00 0.00 0.00 35 977.3
20260508092346 57 312 4.3 12.2 0.00 0.00 0.00 37 977.5
20260508091845 56 171 6.1 13.9 0.00 0.00 0.00 39 977.5
20260508091345 55 56 5.2 13.9 0.00 0.00 0.00 36 977.5
20260508090845 55 98 5.2 13.9 0.00 0.00 0.00 37 977.5
20260508090345 56 117 5.2 13.0 0.00 0.00 0.00 37 977.5
20260508085845 54 55 6.1 14.8 0.00 0.00 0.00 38 977.5
20260508085345 55 156 5.2 17.4 0.00 0.00 0.00 40 977.5
20260508084845 55 44 3.5 17.4 0.00 0.00 0.00 37 977.5
20260508084345 55 182 4.3 11.3 0.00 0.00 0.00 42 977.9
20260508083815 54 57 6.1 12.2 0.00 0.00 0.00 43 977.8
20260508083315 52 72 6.1 12.2 0.00 0.00 0.00 45 977.4
20260508082746 52 67 6.1 13.0 0.00 0.00 0.00 47 977.5
20260508082246 51 236 7.0 13.0 0.00 0.00 0.00 47 977.8
20260508081745 50 79 7.0 12.2 0.00 0.00 0.00 49 977.8
20260508081245 51 74 7.0 12.2 0.00 0.00 0.00 50 977.8
20260508080745 50 59 7.0 13.0 0.00 0.00 0.00 48 977.5
20260508080245 50 63 7.0 13.0 0.00 0.00 0.00 50 977.8
20260508075745 49 38 7.0 13.0 0.00 0.00 0.00 50 977.6
20260508075215 49 13 6.1 13.0 0.00 0.00 0.00 53 978.1
20260508074715 48 66 6.1 12.2 0.00 0.00 0.00 56 978.0
20260508074215 46 42 5.2 9.6 0.00 0.00 0.00 57 978.1
20260508073645 45 47 6.1 9.6 0.00 0.00 0.00 57 978.0
20260508073145 45 70 6.1 11.3 0.00 0.00 0.00 57 978.0
20260508072645 45 31 7.0 13.0 0.00 0.00 0.00 55 977.6
20260508072145 46 47 7.8 13.0 0.00 0.00 0.00 54 978.0
20260508071645 48 51 7.0 13.9 0.00 0.00 0.00 53 978.0
20260508071115 48 26 7.0 13.9 0.00 0.00 0.00 53 978.0
20260508070615 48 44 7.0 13.9 0.00 0.00 0.00 53 978.0
20260508070045 48 42 6.1 13.9 0.00 0.00 0.00 51 977.5
20260508065515 48 70 5.2 11.3 0.00 0.00 0.00 50 978.0
20260508065015 49 22 5.2 11.3 0.00 0.00 0.00 51 978.1
20260508064445 47 33 6.1 12.2 0.00 0.00 0.00 53 978.0
20260508063945 47 68 6.1 13.9 0.00 0.00 0.00 52 977.6
20260508063445 46 51 7.0 13.9 0.00 0.00 0.00 54 978.0
20260508062945 47 19 6.1 12.2 0.00 0.00 0.00 51 978.0
20260508062415 46 43 6.1 12.2 0.00 0.00 0.00 52 978.0
20260508061915 46 56 6.1 12.2 0.00 0.00 0.00 51 978.0
20260508061345 46 51 6.1 11.3 0.00 0.00 0.00 53 978.0
20260508060815 44 7 7.0 13.9 0.00 0.00 0.00 53 978.0
20260508060315 44 19 7.0 13.9 0.00 0.00 0.00 55 978.0
20260508055815 44 30 6.1 13.9 0.00 0.00 0.00 53 978.0
20260508055315 44 0 6.1 11.3 0.00 0.00 0.00 56 978.0
20260508054745 43 20 6.1 11.3 0.00 0.00 0.00 55 978.0
20260508054245 43 21 6.1 12.2 0.00 0.00 0.00 54 978.0
20260508053745 42 9 7.0 12.2 0.00 0.00 0.00 58 978.0
20260508053245 43 18 6.1 12.2 0.00 0.00 0.00 56 978.0
20260508052745 42 16 5.2 10.4 0.00 0.00 0.00 56 978.0
20260508052245 43 21 5.2 9.6 0.00 0.00 0.00 56 978.0
20260508051715 42 13 4.3 9.6 0.00 0.00 0.00 56 978.0
20260508051145 43 16 4.3 7.8 0.00 0.00 0.00 55 977.6
20260508050645 43 20 3.5 7.8 0.00 0.00 0.00 54 977.5
20260508050145 45 29 3.5 7.8 0.00 0.00 0.00 48 977.6
20260508045615 47 14 1.7 6.1 0.00 0.00 0.00 47 977.6
20260508045115 51 337 0.9 4.3 0.00 0.00 0.00 44 978.0
20260508044615 52 174 0.9 2.6 0.00 0.00 0.00 47 978.1
20260508044045 49 163 0.9 3.5 0.00 0.00 0.00 50 978.0
20260508043545 47 128 1.7 3.5 0.00 0.00 0.00 54 978.0
20260508043045 44 251 1.7 3.5 0.00 0.00 0.00 55 978.0
20260508042545 44 246 1.7 3.5 0.00 0.00 0.00 56 978.0
20260508042015 43 243 1.7 4.3 0.00 0.00 0.00 56 978.0
20260508041515 43 257 1.7 4.3 0.00 0.00 0.00 56 978.0
20260508040945 43 247 1.7 3.5 0.00 0.00 0.00 56 978.0
20260508040445 43 276 1.7 3.5 0.00 0.00 0.00 55 978.0
20260508035945 43 293 1.7 3.5 0.00 0.00 0.00 54 977.5
20260508035445 43 307 1.7 3.5 0.00 0.00 0.00 53 977.6
20260508034945 42 294 1.7 3.5 0.00 0.00 0.00 54 977.6
20260508034445 43 282 0.9 3.5 0.00 0.00 0.00 54 977.5
20260508033945 44 305 0.9 3.5 0.00 0.00 0.00 55 978.0
20260508033445 42 297 0.9 3.5 0.00 0.00 0.00 61 977.5
20260508032915 39 292 1.7 3.5 0.00 0.00 0.00 62 977.4
20260508032415 39 288 0.9 2.6 0.00 0.00 0.00 64 977.4
20260508031914 39 294 0.9 1.7 0.00 0.00 0.00 65 977.4
20260508031414 38 284 0.9 2.6 0.00 0.00 0.00 68 977.4
20260508030914 37 136 1.7 2.6 0.00 0.00 0.00 72 977.4
20260508030414 35 258 2.6 3.5 0.00 0.00 0.00 76 977.5
20260508025844 33 246 2.6 3.5 0.00 0.00 0.00 80 977.3
20260508025344 32 255 2.6 3.5 0.00 0.00 0.00 84 977.3
20260508024844 31 248 2.6 3.5 0.00 0.00 0.00 87 977.2
20260508024344 31 240 2.6 3.5 0.00 0.00 0.00 86 977.2
20260508023844 30 250 2.6 3.5 0.00 0.00 0.00 87 977.2
20260508023314 30 270 2.6 3.5 0.00 0.00 0.00 86 977.3
20260508022814 30 263 1.7 3.5 0.00 0.00 0.00 85 977.3
20260508022314 31 274 1.7 3.5 0.00 0.00 0.00 83 977.3
20260508021744 31 312 1.7 3.5 0.00 0.00 0.00 81 977.3
20260508021214 32 352 0.9 3.5 0.00 0.00 0.00 81 977.2
20260508020714 33 8 0.9 3.5 0.00 0.00 0.00 80 977.2
20260508020144 33 186 0.0 1.7 0.00 0.00 0.00 82 977.4
20260508015644 33 151 0.0 1.7 0.00 0.00 0.00 81 977.3
20260508015144 33 135 0.0 1.7 0.00 0.00 0.00 80 977.3
20260508014614 33 189 0.0 1.7 0.00 0.00 0.00 78 977.2
20260508014114 33 179 0.0 1.7 0.00 0.00 0.00 79 977.2
20260508013614 32 204 0.0 1.7 0.00 0.00 0.00 76 977.2